Back to catalog

ATLAS 5 CENTAUR DEB

LostHEO
NORAD 46866·DEBRIS·🇺🇸 United States

Launched Oct 17, 2018 from Cape Canaveral Space Force Station

Loading…

Next Passes (next 24 hours)

TLE

StaleSource: Space-Track

Epoch: Aug 1, 2022, 03:27 UTC

1 46866U 18079DX  22213.14391944 -.00000065  00000-0  00000+0 0  9991
2 46866  10.2572 125.2588 4247198 154.5077 234.4488  2.07003218 13194

Track ATLAS 5 CENTAUR DEB in real time with AllMySat

Download on the App Store